Cherry Point, NC

2:16 PM EDT on June 25, 2017 (GMT -0400)
Cherry Point Marine Corps Air Station

Weather History for KNKT - January, 2014

Change the Weather History Date:

Monday, January 6, 2014

  Actual Average Record
Temperature  
Mean Temperature 50 °F -  
Max Temperature 66 °F 55 °F 73 °F (1998)
Min Temperature 33 °F 34 °F 15 °F (1999)
Degree Days  
Heating Degree Days 16    
Moisture  
Dew Point 48 °F    
Average Humidity 78    
Maximum Humidity 93    
Minimum Humidity 42    
Precipitation  
Precipitation 0.06 in - - ()
Sea Level Pressure  
Sea Level Pressure 29.80 in    
Wind  
Wind Speed 14 mph (WSW)    
Max Wind Speed 33 mph    
Max Gust Speed 41 mph    
Visibility 8 miles    
Events Rain    
Averages and records for this station are not official NWS values.
T = Trace of Precipitation, MM = Missing Value Source: NWS Daily Summary

Daily Weather History Graph

Daily Weather History Graph

Search for Another Location

Airport or City:

Trip Planner

Search our weather history database for the weather conditions in past years. The results will help you decide how hot, cold, wet, or windy it might be!

Date:

Astronomy

Jan. 06, 2014 Rise Set
Actual Time 7:15 AM EST 5:11 PM EST
Civil Twilight 6:47 AM EST 5:39 PM EST
Nautical Twilight 6:16 AM EST 6:10 PM EST
Astronomical Twilight 5:45 AM EST 6:41 PM EST
Moon 10:45 AM EST (1/6) 11:25 PM EST (1/6)
Length of Visible Light 10h 51m
Length of Day
9h 55m
Waxing Crescent, 34% of the Moon is Illuminated
Jan 6
Waxing Crescent
Jan 7
First Quarter
Jan 15
Full
Jan 24
Last Quarter
Jan 30
New

Hourly Weather History & Observations

Time (EST) Temp. Windchill Dew Point Humidity Pressure Visibility Wind Dir Wind Speed Gust Speed Precip Events Conditions
12:33 AM 64.0 °F - 62.1 °F 93% 29.84 in 10.0 mi SSW 8.1 mph - N/A   Scattered Clouds
12:54 AM 64.9 °F - 62.1 °F 90% 29.82 in 10.0 mi SSW 9.2 mph - N/A   Scattered Clouds
1:03 AM 64.9 °F - 62.1 °F 90% 29.83 in 10.0 mi SSW 9.2 mph - N/A   Mostly Cloudy
1:54 AM 64.9 °F - 62.1 °F 90% 29.81 in 10.0 mi SSW 9.2 mph - N/A   Mostly Cloudy
2:01 AM 64.9 °F - 62.1 °F 90% 29.81 in 10.0 mi SSW 10.4 mph - N/A   Scattered Clouds
2:13 AM 64.9 °F - 62.1 °F 90% 29.81 in 10.0 mi SSW 12.7 mph - N/A   Mostly Cloudy
2:54 AM 64.9 °F - 62.1 °F 90% 29.79 in 10.0 mi SW 9.2 mph - N/A   Overcast
3:54 AM 66.0 °F - 62.1 °F 87% 29.76 in 10.0 mi SSW 12.7 mph 18.4 mph N/A   Mostly Cloudy
4:12 AM 66.0 °F - 63.0 °F 90% 29.76 in 10.0 mi South 10.4 mph - N/A   Scattered Clouds
4:44 AM 66.0 °F - 63.0 °F 90% 29.75 in 10.0 mi SSW 13.8 mph - N/A   Mostly Cloudy
4:54 AM 66.0 °F - 63.0 °F 90% 29.74 in 10.0 mi SSW 11.5 mph 20.7 mph N/A   Mostly Cloudy
5:54 AM 66.9 °F - 63.0 °F 87% 29.73 in 10.0 mi SW 17.3 mph 26.5 mph N/A   Mostly Cloudy
6:54 AM 64.9 °F - 63.0 °F 93% 29.73 in 10.0 mi WSW 20.7 mph - N/A   Overcast
7:31 AM 66.0 °F - 62.1 °F 87% 29.74 in 10.0 mi SW 19.6 mph 32.2 mph N/A   Mostly Cloudy
7:46 AM 66.0 °F - 62.1 °F 87% 29.73 in 10.0 mi SW 18.4 mph 33.4 mph N/A   Mostly Cloudy
7:54 AM 66.0 °F - 62.1 °F 87% 29.72 in 10.0 mi SW 18.4 mph 28.8 mph N/A   Scattered Clouds
8:54 AM 66.9 °F - 61.0 °F 81% 29.72 in 10.0 mi SW 18.4 mph 26.5 mph N/A   Mostly Cloudy
9:54 AM 66.0 °F - 60.1 °F 81% 29.71 in 10.0 mi SW 20.7 mph 31.1 mph N/A   Mostly Cloudy
10:54 AM 64.9 °F - 59.0 °F 81% 29.69 in 10.0 mi SW 17.3 mph 23.0 mph N/A   Overcast
11:54 AM 63.0 °F - 57.9 °F 84% 29.66 in - SSW 13.8 mph 25.3 mph N/A   Overcast
12:27 PM 55.9 °F - 51.1 °F 84% 29.70 in 5.0 mi West 33.4 mph 41.4 mph 0.00 in Rain Rain
12:41 PM 54.0 °F - 48.9 °F 83% 29.71 in 0.8 mi West 25.3 mph 34.5 mph 0.01 in Rain Rain
12:54 PM 53.1 °F - 48.0 °F 83% 29.71 in 4.0 mi West 21.9 mph 27.6 mph 0.01 in Rain Rain
1:01 PM 52.0 °F - 48.0 °F 86% 29.72 in 4.0 mi West 23.0 mph 32.2 mph 0.00 in Rain Rain
1:24 PM 51.1 °F - 46.9 °F 86% 29.72 in 2.0 mi West 15.0 mph 29.9 mph 0.01 in Rain Rain
1:44 PM 50.0 °F - 46.9 °F 89% 29.73 in 1.5 mi West 12.7 mph - 0.05 in Rain Heavy Rain
1:51 PM 50.0 °F - 46.9 °F 89% 29.71 in 6.0 mi West 12.7 mph - 0.05 in Rain Light Rain
1:58 PM 50.0 °F - 46.9 °F 89% 29.72 in - West 12.7 mph - 0.00 in   Overcast
2:11 PM 51.1 °F - 46.9 °F 86% 29.72 in 7.0 mi West 17.3 mph - 0.00 in Rain Light Rain
2:54 PM 51.1 °F - 46.9 °F 86% 29.72 in 10.0 mi West 16.1 mph 20.7 mph 0.00 in   Overcast
3:01 PM 51.1 °F - 46.9 °F 86% 29.73 in - West 16.1 mph - N/A   Overcast
3:10 PM 51.1 °F - 46.9 °F 86% 29.75 in 10.0 mi West 16.1 mph - N/A   Overcast
3:46 PM 51.1 °F - 44.1 °F 77% 29.77 in 10.0 mi WNW 12.7 mph - N/A   Overcast
3:54 PM 51.1 °F - 44.1 °F 77% 29.76 in 10.0 mi WNW 13.8 mph 20.7 mph N/A   Overcast
4:01 PM 50.0 °F - 43.0 °F 77% 29.77 in 10.0 mi WNW 17.3 mph - N/A   Overcast
4:54 PM 48.9 °F - 41.0 °F 74% 29.80 in 10.0 mi West 15.0 mph - N/A   Mostly Cloudy
5:54 PM 46.0 °F 39.0 °F 32.0 °F 58% 29.85 in 10.0 mi West 17.3 mph 26.5 mph N/A   Clear
6:54 PM 43.0 °F 37.2 °F 30.9 °F 62% 29.89 in - WNW 10.4 mph - N/A   Clear
7:54 PM 42.1 °F 34.5 °F 24.1 °F 49% 29.94 in - WNW 15.0 mph 21.9 mph N/A   Clear
8:54 PM 39.9 °F 32.5 °F 24.1 °F 53% 29.98 in 7.0 mi West 12.7 mph - N/A   Clear
9:54 PM 37.9 °F 28.9 °F 19.9 °F 48% 30.01 in 7.0 mi NW 16.1 mph 24.2 mph N/A   Clear
10:01 PM 37.9 °F 28.9 °F 19.0 °F 47% 30.03 in 10.0 mi NW 16.1 mph 27.6 mph N/A   Haze
10:54 PM 37.0 °F 28.1 °F 16.0 °F 42% 30.05 in 10.0 mi WNW 15.0 mph 21.9 mph N/A   Overcast
10:56 PM 37.0 °F 27.7 °F 16.0 °F 42% 30.06 in 10.0 mi WNW 16.1 mph 21.9 mph N/A   Overcast
11:54 PM 33.1 °F 23.4 °F 12.9 °F 43% 30.09 in 10.0 mi WNW 13.8 mph - N/A   Clear
11:59 PM 33.1 °F 22.6 °F 12.9 °F 43% 30.10 in 0.5 mi WNW 16.1 mph - N/A   Clear